Wind_Speed
123 123 122 122 123 123 123 123 122 123 123 123 122 122 122 121 121 120 120 119 119 118 117 117 117 116 116 116 115 115 114 114 113 113 112 111 110 109 108 107 106 106 105 104 103 102 102 101 100 99 98 98 97 96 96 96 95 95 95 95 95 95 95 94 94 94 93 93 93 93 93 92 92 92 92 92 92 92 93 93 93 93 93 93 93 93
124 124 124 124 124 124 124 124 123 124 124 123 123 123 122 122 121 120 119 118 118 117 117 117 116 116 116 116 115 115 114 114 113 112 112 111 110 109 108 107 106 105 104 103 103 102 101 100 99 98 97 97 96 96 96 95 95 95 95 95 95 95 94 94 94 93 93 93 93 93 93 92 92 92 92 93 93 93 93 93 93 93 94 94 94 93
126 126 126 126 125 126 126 125 125 124 124 124 123 123 122 121 121 120 119 118 118 117 117 116 116 116 116 115 115 114 114 113 113 112 111 110 108 108 107 106 105 104 103 103 102 101 100 99 98 97 97 96 96 96 95 95 95 95 95 95 95 95 94 94 93 93 93 93 93 93 93 93 92 93 93 93 93 94 94 94 94 94 94 94 94 94
127 128 128 127 127 127 127 126 125 125 124 124 123 122 122 121 121 120 119 118 117 117 117 116 116 116 116 115 114 114 113 112 111 110 109 108 107 106 105 105 104 103 102 101 100 100 99 98 97 96 96 96 95 95 95 95 95 95 95 95 95 94 94 94 93 93 93 93 93 93 93 93 93 93 93 93 94 94 94 94 95 95 95 95 95 95
129 129 129 129 128 128 127 126 125 125 124 123 123 122 121 121 120 119 118 118 117 117 117 116 116 115 115 114 113 113 112 111 110 109 108 107 106 105 104 103 102 102 101 100 99 98 97 97 96 95 95 95 95 94 94 94 94 95 94 94 94 94 94 93 93 93 93 93 93 93 93 93 93 93 94 94 94 94 95 95 95 95 95 95 95 95
131 130 130 129 129 128 127 126 125 124 124 123 122 121 121 120 119 119 118 118 117 117 116 116 115 114 114 113 112 111 110 110 108 107 106 105 104 103 102 102 101 100 99 98 97 96 96 95 95 94 94 94 94 94 94 94 94 94 94 94 94 94 93 93 93 93 93 93 93 93 93 93 93 94 94 94 94 95 95 95 95 96 96 96 96 96
131 130 130 129 129 128 127 126 125 124 123 123 122 121 120 119 118 118 117 117 117 116 116 115 114 113 112 111 111 110 109 108 107 106 104 103 102 101 100 100 99 98 97 96 96 95 94 94 94 93 93 93 93 93 93 94 94 94 94 94 94 93 93 93 93 93 93 93 93 93 93 93 94 94 94 94 95 95 95 95 96 96 96 96 96 97
132 130 129 129 128 127 126 125 124 123 122 122 121 120 119 118 117 117 116 116 115 115 114 113 113 112 111 110 109 108 107 106 105 104 102 101 100 99 98 97 97 96 95 94 94 93 93 93 93 92 92 92 93 93 93 93 93 94 93 93 93 93 93 93 93 93 93 93 93 93 93 93 94 94 94 95 95 95 95 96 96 97 97 97 97 97
131 130 129 128 127 126 126 124 123 121 121 120 120 119 118 117 116 116 115 114 114 113 112 112 111 110 109 108 107 106 105 104 103 102 100 99 98 97 96 95 95 94 93 92 92 92 92 92 92 92 92 92 92 92 93 93 93 93 93 93 93 93 93 93 93 93 93 93 93 93 93 94 94 94 94 95 95 95 96 96 96 97 97 97 97 97
129 128 127 126 125 124 124 123 122 120 119 118 118 117 116 116 115 114 114 113 112 111 110 110 109 109 108 106 105 104 103 102 100 99 98 97 96 95 94 93 93 92 91 91 91 90 90 90 90 91 91 91 92 92 92 93 93 93 93 93 93 93 93 93 93 93 93 93 93 93 94 94 94 94 94 95 95 95 96 96 97 97 97 97 98 98
127 126 126 125 124 122 122 121 120 119 117 117 116 115 114 113 113 113 113 112 111 109 108 107 107 106 106 104 103 101 100 99 98 97 96 95 94 93 92 91 91 90 90 90 89 89 89 89 90 90 90 91 91 91 92 92 92 92 92 92 93 93 93 93 93 93 93 93 94 94 94 94 94 94 94 95 95 96 96 96 97 97 97 98 98 98
125 124 124 123 122 121 120 119 118 117 115 115 114 113 112 111 110 110 110 109 108 107 106 105 104 103 103 102 100 99 98 96 95 94 93 92 92 91 90 89 89 89 89 88 88 88 88 89 89 89 90 90 91 91 91 91 92 92 92 92 92 93 93 93 93 93 94 94 94 94 94 94 94 95 95 95 95 96 96 96 97 97 97 98 98 98
124 123 122 121 120 119 118 117 116 115 114 113 112 112 111 109 108 107 106 106 105 104 103 103 102 101 100 99 97 96 95 94 93 92 91 91 90 89 88 88 87 87 87 87 87 88 88 88 88 89 89 89 90 90 91 91 91 91 92 92 93 93 93 93 93 94 94 94 94 94 94 94 95 95 95 95 96 96 96 97 97 97 97 98 98 98
122 121 120 119 118 117 116 115 114 113 112 110 109 109 108 106 105 104 103 102 102 101 100 100 100 99 98 96 94 93 92 91 91 90 90 89 88 87 86 86 86 86 86 86 87 87 87 87 88 88 89 89 89 90 90 91 91 91 92 92 93 93 93 94 94 94 94 94 94 94 95 95 95 95 95 96 96 96 97 97 97 97 97 98 97 97
120 119 118 118 116 115 113 112 111 110 109 108 106 105 104 103 102 101 100 99 98 97 97 97 97 96 95 93 92 90 89 89 88 88 88 87 86 86 85 84 85 85 85 85 86 86 86 87 87 88 88 89 89 90 90 90 91 91 92 92 93 93 93 94 94 94 94 94 95 95 95 95 95 96 96 96 96 97 97 97 97 97 97 97 97 96
118 117 116 115 114 112 111 109 108 107 105 104 103 101 100 99 98 97 96 96 95 95 94 94 94 94 93 91 89 88 87 86 86 86 86 86 85 84 83 83 83 84 84 85 85 85 86 86 87 87 88 88 89 89 90 90 91 91 92 92 93 93 93 94 94 94 94 94 95 95 95 95 96 96 96 97 97 97 97 97 97 97 97 96 96 95
115 114 113 112 111 109 107 105 104 103 101 100 99 98 97 96 95 94 94 93 93 92 92 92 91 91 91 89 87 86 84 84 83 84 84 84 84 83 82 82 82 83 83 84 84 85 85 86 86 87 88 88 89 89 90 90 91 91 92 92 93 93 93 94 94 94 94 94 95 95 95 96 96 96 97 97 97 97 97 97 97 96 96 95 94 94
112 111 110 108 107 105 103 102 100 99 97 96 95 94 94 93 92 91 91 91 90 90 90 89 89 89 88 88 86 84 82 81 81 82 82 82 83 82 81 81 81 82 83 83 84 84 85 85 86 87 88 88 89 89 90 90 91 91 92 92 93 93 93 94 94 94 94 95 95 95 96 96 96 97 97 97 97 97 97 97 96 96 95 94 93 93
109 107 105 104 103 101 99 98 96 95 94 93 92 92 91 91 90 89 89 89 88 88 87 87 87 87 86 86 85 83 81 80 79 80 80 81 81 81 81 80 80 81 82 83 83 84 84 85 86 87 87 88 88 89 90 90 91 92 92 93 93 93 94 94 94 94 95 95 95 96 96 97 97 97 97 97 97 97 97 96 95 95 94 93 93 92
105 103 101 99 98 97 96 94 93 92 91 91 90 90 90 89 89 88 88 87 86 86 85 85 85 85 84 84 83 81 79 78 78 78 78 79 80 80 80 80 80 81 82 82 83 83 84 85 86 87 87 88 88 89 90 91 91 92 92 93 93 93 94 94 94 95 95 95 96 96 97 97 97 97 97 97 97 97 96 95 95 94 93 93 92 92
100 99 97 95 94 94 93 92 91 90 89 89 89 89 88 88 88 87 86 86 85 84 84 83 83 83 82 81 81 79 78 76 76 76 77 77 78 79 79 79 80 80 81 82 83 83 84 85 86 86 87 88 89 89 90 91 92 92 93 93 93 94 94 94 95 95 96 96 96 97 97 98 98 98 97 97 97 96 96 95 95 94 93 92 92 91
97 96 94 93 92 91 91 91 90 89 88 88 88 88 87 87 86 86 85 84 83 83 82 82 81 81 80 79 79 77 76 75 74 74 75 76 77 78 79 79 79 80 81 82 83 83 84 85 86 86 87 88 89 90 91 91 92 93 93 94 94 94 95 95 95 96 96 97 97 97 98 98 98 98 98 97 97 96 96 95 95 94 93 92 91 91
94 93 92 91 90 90 90 89 89 88 88 87 87 87 86 85 85 84 83 82 82 81 81 80 79 79 78 77 77 76 75 74 73 73 73 75 76 78 78 78 79 80 81 82 82 83 84 85 86 87 87 88 89 90 91 92 93 93 94 94 94 95 95 95 96 96 97 97 98 98 98 99 98 98 98 97 97 96 96 95 94 94 93 92 91 90
92 91 91 90 90 89 89 88 88 87 87 86 86 85 84 83 83 82 82 81 80 80 79 78 78 77 77 76 75 74 73 72 72 72 72 74 76 77 78 78 78 79 80 81 82 82 83 84 86 87 87 88 89 90 91 92 93 94 94 94 95 95 95 96 96 97 97 98 98 98 99 99 99 98 98 98 97 96 96 95 94 93 92 92 91 91
91 90 90 89 89 88 88 88 87 86 85 85 84 83 82 82 81 80 79 79 78 77 77 76 76 76 75 74 74 73 72 71 71 71 72 73 75 76 77 77 78 79 80 80 81 82 83 84 85 86 87 88 89 90 91 92 93 94 94 95 95 95 96 96 97 97 97 98 98 99 99 99 99 98 98 97 97 96 95 94 94 93 92 92 91 91
90 90 89 89 88 87 87 86 85 85 84 83 82 81 80 80 79 78 78 77 76 75 75 74 74 74 73 73 73 72 71 71 70 71 72 73 74 76 76 77 77 78 79 80 80 81 82 83 85 86 87 88 89 90 91 92 93 94 95 95 95 96 96 96 97 97 98 98 98 99 99 99 98 98 98 97 96 96 95 94 94 93 93 92 92 92
89 88 88 87 86 86 85 84 83 82 82 81 80 79 78 77 77 76 75 74 74 73 72 72 72 72 72 72 72 71 71 70 70 71 71 73 74 75 76 76 76 77 77 78 79 80 81 83 84 85 87 88 89 90 91 92 93 94 94 95 96 96 97 97 97 98 98 98 99 99 99 98 98 98 97 97 96 96 95 95 94 94 94 94 94 94
87 86 86 85 84 83 83 82 81 80 79 78 77 77 76 75 75 74 73 72 71 70 70 70 70 70 71 71 71 71 71 70 70 71 72 72 74 75 75 75 75 76 76 77 78 79 80 82 83 85 86 88 89 90 91 92 93 93 94 95 96 96 97 97 98 98 98 99 99 99 99 98 98 97 97 97 96 96 96 96 96 95 95 95 95 95
85 84 83 82 81 81 80 79 78 77 76 76 75 74 73 72 72 71 71 70 69 68 69 69 69 69 70 70 71 71 71 71 71 71 71 72 73 74 75 75 75 76 76 77 78 79 80 82 83 84 86 87 88 90 91 92 93 93 94 95 96 97 97 98 98 99 99 99 99 99 98 98 98 97 97 97 97 97 97 97 97 97 97 96 96 95
82 81 80 79 78 77 77 76 75 74 74 73 72 71 70 70 69 69 68 68 67 67 67 68 68 68 69 70 70 71 71 71 71 71 71 72 73 74 75 75 75 76 76 76 77 79 80 82 83 84 85 87 88 89 90 91 92 93 94 95 96 97 97 98 98 99 99 99 99 99 98 98 98 98 98 98 98 98 98 98 98 98 97 97 96 95
78 77 76 76 75 74 74 73 72 71 71 70 69 68 68 67 66 66 66 66 66 66 66 67 67 68 69 69 70 71 71 71 71 71 71 72 73 74 75 75 76 76 76 76 77 78 80 82 83 84 85 86 88 89 90 91 92 93 94 95 96 96 97 98 98 98 99 99 99 98 98 98 98 98 98 99 99 99 99 99 99 98 97 96 95 94
74 74 73 72 72 71 70 70 69 68 68 67 66 65 65 65 64 64 64 64 65 65 66 66 67 68 68 69 70 71 71 71 71 71 71 71 73 74 74 75 76 76 77 77 77 78 79 81 82 84 85 86 87 89 90 91 92 93 93 94 95 96 97 97 97 98 98 98 98 98 98 98 98 98 99 99 99 99 99 99 99 98 97 95 94 93
71 70 69 69 68 67 67 66 66 65 64 64 63 63 63 63 63 63 63 64 64 65 66 66 67 68 68 69 70 70 71 71 71 71 71 71 72 73 74 75 76 77 78 78 78 78 79 80 81 83 84 86 87 89 90 91 92 92 93 94 95 95 96 96 96 97 97 97 97 97 97 98 98 98 98 98 98 98 98 98 97 96 95 94 93 91
67 67 66 65 65 64 63 63 62 62 61 61 61 61 61 61 62 62 63 63 64 65 65 66 67 68 68 69 69 70 70 70 70 70 70 71 72 73 74 75 76 77 78 78 79 79 80 81 82 83 84 86 87 89 90 91 91 92 92 93 94 94 95 95 95 96 96 96 96 96 97 97 97 97 97 97 97 97 96 96 96 95 94 92 91 90
64 63 62 62 61 60 60 59 59 59 59 59 59 60 60 61 61 62 62 63 64 64 65 66 66 67 67 68 69 70 70 70 70 70 70 71 72 73 74 75 76 77 77 78 79 80 81 82 83 84 85 86 88 89 90 90 91 91 91 92 92 93 94 94 94 95 95 95 95 95 95 95 95 95 95 94 94 94 94 94 93 93 92 91 90 89
60 59 59 58 58 57 57 57 57 57 57 58 58 59 60 60 61 62 62 63 64 64 65 65 66 66 67 67 68 69 70 70 71 71 71 71 72 73 74 75 76 77 77 78 79 80 81 83 84 84 86 87 88 89 89 90 90 90 91 91 91 92 93 93 93 93 93 93 93 93 93 92 92 92 92 92 92 91 91 91 91 91 90 90 89 88
56 56 55 55 55 55 55 55 55 56 56 57 58 59 59 60 61 61 62 62 63 64 64 65 65 66 66 67 68 68 69 70 71 71 72 72 72 73 74 75 76 77 77 78 80 81 82 83 84 85 86 86 87 88 88 88 88 89 89 90 90 91 92 92 92 91 91 91 90 90 90 89 89 89 89 89 89 89 89 89 89 89 89 88 87 86
53 53 53 53 53 53 54 54 55 55 56 57 57 58 59 60 60 61 61 62 63 63 64 65 65 66 66 67 68 68 69 70 71 71 72 72 72 73 74 75 76 77 78 79 80 81 82 83 84 85 85 85 86 86 86 87 87 87 88 88 89 90 90 90 90 89 88 88 87 87 87 86 86 86 86 86 86 86 87 87 87 87 87 86 85 84
50 51 51 51 52 52 53 54 54 55 56 56 57 58 58 59 60 60 61 61 62 63 64 64 65 66 67 67 68 69 69 70 70 71 71 72 72 73 74 75 77 78 79 80 80 81 82 83 83 83 84 84 84 84 84 84 85 85 86 86 87 88 88 88 87 86 86 85 84 84 84 84 84 84 84 84 85 85 85 85 85 85 84 84 83 81
49 49 50 51 51 52 53 53 54 55 55 56 57 57 58 58 59 60 60 61 62 62 63 64 65 66 67 68 68 69 69 70 70 71 71 72 73 74 75 76 77 78 79 80 81 81 82 82 82 82 82 82 82 82 82 83 83 83 84 84 85 85 85 85 85 84 83 82 82 82 82 82 82 82 83 83 83 83 83 83 83 82 82 81 80 78
48 49 50 50 51 52 52 53 53 54 55 55 56 56 57 58 59 59 60 61 61 62 63 64 65 66 67 68 68 69 69 69 70 71 71 72 73 74 75 76 77 78 79 80 80 81 81 81 81 81 80 80 80 80 81 81 81 81 81 82 82 82 82 82 82 82 81 81 81 81 81 81 81 81 82 82 82 82 81 81 81 80 79 77 76 75
48 49 49 50 51 51 52 52 53 53 54 54 55 56 57 57 58 59 59 60 61 62 63 64 65 66 67 68 68 69 69 70 70 71 72 73 74 75 76 77 77 78 79 79 80 80 80 80 80 80 79 79 79 79 79 79 79 79 79 79 80 80 80 80 80 80 80 80 80 80 80 80 80 80 80 80 80 80 80 79 78 77 76 74 73 72
48 48 49 49 50 50 51 51 52 53 53 54 55 55 56 57 58 59 59 60 61 62 63 64 65 65 67 68 69 69 70 70 71 72 73 73 74 75 76 77 77 77 78 78 79 79 79 79 79 79 78 78 77 77 77 77 77 77 77 78 78 78 79 79 79 79 79 79 79 79 79 79 79 79 79 79 79 78 78 77 76 74 73 71 70 69
47 48 48 49 49 50 50 51 51 52 53 53 54 55 56 57 58 58 59 60 61 62 63 63 64 65 66 68 69 70 71 71 72 72 73 74 74 75 76 76 76 76 77 77 78 78 78 78 78 78 77 76 76 75 75 74 75 75 76 76 77 77 78 78 78 78 78 79 79 78 78 78 78 77 77 77 77 76 76 75 73 72 70 69 68 67
47 47 47 48 48 49 49 50 51 51 52 53 54 55 56 57 58 58 59 60 61 62 63 63 64 66 67 68 69 71 72 72 73 73 74 74 74 75 75 75 75 75 76 76 76 77 77 77 77 77 75 75 74 73 73 73 73 74 75 76 76 77 77 77 77 77 78 78 78 78 77 77 76 76 75 75 75 74 74 73 72 70 68 66 66 66
46 46 46 47 47 48 49 49 50 51 52 53 54 55 56 57 57 58 59 60 61 62 63 64 65 66 68 69 70 71 72 73 74 74 74 74 74 74 74 74 74 74 75 75 75 75 75 76 76 75 74 73 72 72 71 72 72 73 74 75 76 77 77 77 77 77 77 77 77 77 76 76 75 74 74 73 73 72 72 71 70 68 66 65 64 64
45 45 46 46 47 47 48 49 50 51 52 53 54 55 56 56 57 58 59 60 61 62 63 65 66 67 68 69 70 71 72 73 74 74 74 74 74 73 73 73 73 73 73 74 74 74 75 74 74 73 73 72 71 71 70 71 72 73 74 75 76 77 77 77 77 77 77 77 76 76 75 75 74 73 72 71 70 70 69 69 68 67 65 64 63 62
44 45 45 46 47 47 48 49 50 51 52 53 54 55 56 56 57 58 59 61 62 63 64 65 67 68 69 70 70 71 72 72 73 73 73 73 73 73 72 72 72 72 73 73 73 73 74 74 73 73 72 71 70 70 70 71 72 73 74 75 76 76 77 77 77 76 76 76 76 75 74 73 72 71 70 69 68 68 67 67 67 66 64 62 61 60
44 44 45 46 47 48 49 50 51 51 52 53 54 55 56 57 58 59 60 61 63 64 65 66 68 69 70 70 70 71 71 71 71 71 71 71 71 71 71 71 71 71 71 72 72 73 73 73 73 72 72 71 70 70 70 71 72 73 74 75 76 76 76 76 76 75 75 75 75 74 73 72 71 70 68 67 66 66 65 66 65 65 63 61 59 58
43 44 45 46 47 48 49 50 51 51 52 53 54 56 57 58 59 60 61 62 64 65 66 67 68 69 70 70 70 70 70 70 69 69 69 69 69 69 69 69 69 70 70 71 71 72 73 74 74 73 72 72 71 71 71 71 72 72 74 75 75 75 75 75 74 74 74 74 74 73 72 71 70 68 67 66 65 64 63 64 64 63 61 59 57 56
44 45 46 47 47 48 49 50 51 52 53 54 55 57 58 59 60 61 62 63 65 66 67 67 68 69 69 69 69 69 69 68 68 68 68 67 67 67 68 68 68 68 69 70 70 71 72 73 75 75 75 73 72 72 71 71 72 72 73 74 74 74 74 74 73 73 73 73 73 72 71 70 69 67 66 65 64 62 62 61 61 60 59 57 55 53
Wind_Direction
278 279 279 280 280 280 281 281 282 282 283 283 284 284 284 285 285 286 286 287 287 288 288 289 289 290 290 290 291 291 291 291 291 292 292 292 293 293 294 294 294 294 295 295 295 295 295 295 295 295 295 294 294 294 294 294 294 294 294 294 294 294 294 295 295 296 296 297 297 297 297 297 297 297 298 298 298 298 298 298 298 298 298 298 298 298
278 279 279 280 280 281 281 282 282 282 283 283 284 284 285 285 285 286 286 287 287 288 288 289 289 290 290 290 290 291 291 291 291 291 292 292 293 293 293 294 294 294 294 294 294 294 294 294 294 294 294 294 294 293 293 293 293 293 293 293 293 294 294 295 295 296 296 297 297 297 297 297 297 297 298 298 298 298 298 298 298 298 298 298 298 298
279 279 279 280 280 281 281 282 282 283 283 283 284 284 285 285 286 286 287 287 288 288 289 289 289 289 290 290 290 290 290 291 291 291 292 292 292 293 293 293 294 294 294 294 294 294 294 294 294 293 293 293 293 293 293 293 293 293 293 293 293 294 294 295 296 296 296 296 297 297 297 297 297 297 298 298 298 298 298 298 298 298 298 298 298 298
279 279 280 280 281 281 281 282 282 283 283 284 284 285 285 286 286 287 287 288 288 289 289 289 289 289 290 290 290 290 290 290 291 291 291 292 292 293 293 293 293 293 293 293 293 293 293 293 293 293 293 292 292 292 292 292 292 292 292 293 293 294 294 295 295 296 296 296 296 297 297 297 297 297 298 298 298 298 298 298 298 298 298 298 298 298
279 279 280 280 281 281 282 282 283 283 284 284 284 285 286 286 287 287 288 288 289 289 289 289 289 289 289 289 289 290 290 290 290 291 291 292 292 292 292 292 293 293 293 293 293 293 293 292 292 292 292 292 292 292 292 292 292 292 292 293 293 294 294 295 295 296 296 296 296 296 297 297 297 297 298 298 298 298 298 298 298 298 298 298 298 298
279 279 280 280 281 281 282 282 283 283 284 284 285 286 286 287 287 288 288 289 289 289 289 289 289 289 289 289 289 289 290 290 290 291 291 291 292 292 292 292 292 292 292 292 292 292 292 292 291 291 291 291 291 291 291 291 291 292 292 293 293 294 295 295 295 296 296 296 296 296 297 297 297 297 298 298 298 298 298 298 298 298 298 298 298 298
279 279 280 280 281 282 282 283 283 284 284 285 285 286 287 287 288 288 288 289 289 289 289 289 289 289 289 289 289 289 290 290 290 291 291 291 291 291 291 291 291 291 291 291 291 291 291 291 291 291 291 291 291 291 291 291 291 292 292 293 293 294 295 295 295 295 296 296 296 296 297 297 297 297 298 298 298 298 298 298 298 298 298 298 298 298
279 279 280 281 281 282 282 283 284 284 285 285 286 287 287 288 288 288 288 288 288 288 288 288 288 288 288 289 289 289 289 290 290 290 291 291 291 291 291 291 291 291 291 291 291 290 290 290 290 290 290 290 290 290 290 291 291 292 292 293 294 294 295 295 295 295 295 296 296 296 297 297 297 297 298 298 298 298 298 298 298 298 298 298 298 298
279 279 280 281 281 282 283 283 284 285 285 286 286 287 288 288 288 288 288 288 288 288 288 288 288 288 288 288 289 289 289 290 290 290 290 290 291 290 290 290 290 290 290 290 290 290 290 290 290 290 290 290 290 290 290 291 291 292 293 293 294 294 295 295 295 295 295 296 296 296 297 297 297 297 297 298 298 298 297 297 298 298 298 298 298 298
279 280 280 281 282 282 283 284 284 285 286 286 287 287 288 288 288 288 288 288 288 288 288 288 288 288 288 288 289 289 289 289 290 290 290 290 290 290 290 290 290 290 289 289 289 289 289 289 289 289 289 289 290 290 290 291 292 292 293 293 294 294 294 295 295 295 295 296 296 296 297 297 297 297 297 297 297 297 297 297 297 297 298 298 298 298
279 280 281 281 282 283 283 284 285 285 286 287 287 287 287 287 288 288 288 288 288 288 288 288 288 288 288 288 288 289 289 289 289 290 290 289 289 289 289 289 289 289 289 289 289 289 289 289 289 289 289 289 290 290 291 291 292 293 293 294 294 294 294 295 295 295 295 296 296 296 297 297 297 297 297 297 297 297 297 297 297 297 297 297 297 297
280 281 281 282 283 283 284 285 285 286 286 287 287 287 287 287 287 287 287 287 287 288 288 288 288 288 288 288 288 289 289 289 289 289 289 289 289 289 289 289 289 288 288 288 288 288 288 288 288 289 289 289 290 290 291 292 292 293 293 294 294 294 294 295 295 295 296 296 296 297 297 297 297 297 297 297 297 297 297 297 297 297 297 297 297 297
280 281 282 282 283 284 284 285 286 286 286 287 287 287 287 287 287 287 287 287 287 287 288 288 288 288 288 288 288 289 289 289 289 289 289 289 288 288 288 288 288 288 288 288 288 288 288 288 288 289 289 290 290 291 291 292 293 293 293 294 294 294 294 295 295 295 296 296 296 297 297 297 297 297 297 297 297 297 297 297 297 297 297 297 297 296
281 281 282 283 284 284 285 285 286 286 286 286 286 286 286 286 286 286 287 287 287 287 287 287 287 287 287 287 288 288 289 289 289 288 288 288 288 288 288 288 288 288 288 288 288 288 288 288 289 289 290 290 291 291 292 292 293 293 293 294 294 294 294 295 295 296 296 296 297 297 297 297 297 297 297 297 297 297 297 297 297 297 296 296 296 296
281 282 283 283 284 285 285 285 286 286 286 286 286 286 286 286 286 286 286 286 287 287 287 287 287 287 287 287 287 288 288 288 288 288 288 288 288 287 288 288 287 287 287 287 288 288 288 289 289 289 290 290 291 292 292 293 293 293 293 293 294 294 295 295 296 296 296 296 297 297 297 297 297 297 297 297 297 297 297 297 296 296 296 296 296 296
282 282 283 284 284 285 285 285 285 285 285 285 285 285 285 286 286 286 286 286 286 286 286 287 287 287 287 287 287 287 288 288 288 288 288 288 287 287 287 287 287 287 287 287 288 288 288 289 289 290 290 291 291 292 292 293 293 293 293 294 294 294 295 295 296 296 296 296 297 297 297 297 297 297 297 297 297 297 296 296 296 296 296 296 296 296
282 283 283 284 284 284 284 284 284 284 284 284 285 285 285 285 285 285 286 286 286 286 286 286 287 287 287 287 287 287 287 287 287 287 287 287 287 287 287 287 287 287 287 288 288 288 289 289 290 290 291 291 292 292 293 293 293 293 293 294 294 294 295 295 296 296 296 296 296 297 297 297 297 297 297 297 297 296 296 296 296 296 296 296 296 296
282 283 283 283 283 283 284 284 284 284 284 284 284 285 285 285 285 285 285 285 286 286 286 286 286 286 286 287 287 286 287 287 287 287 287 287 287 287 287 287 287 287 288 288 288 289 290 290 290 291 291 292 292 293 293 293 293 293 293 294 294 295 295 295 296 296 296 296 296 297 297 297 297 297 297 297 297 296 296 296 296 296 297 297 297 297
282 282 282 283 283 283 283 283 283 284 284 284 284 284 284 284 285 285 285 285 285 286 286 286 286 286 286 286 286 286 287 287 287 287 287 287 287 287 287 287 287 287 288 288 289 290 290 290 291 291 292 292 293 293 293 293 293 293 294 294 294 295 295 296 296 296 296 297 297 297 297 297 297 297 297 297 297 297 297 297 297 297 297 298 298 298
282 282 282 282 282 283 283 283 283 283 284 284 284 284 284 284 284 285 285 285 285 285 285 285 285 285 285 286 286 286 286 286 286 286 286 286 287 287 287 287 287 288 288 289 289 290 290 291 291 292 292 292 293 293 293 293 293 294 294 294 295 295 296 296 296 297 297 297 297 297 297 297 297 297 297 297 297 298 298 298 298 298 298 298 298 298
281 281 282 282 282 282 283 283 283 283 283 284 284 284 284 284 284 284 284 285 285 285 285 285 285 285 285 285 285 285 286 286 286 286 286 286 286 287 287 288 288 288 289 289 290 291 291 291 292 292 292 292 293 293 293 293 294 294 295 295 295 296 296 297 297 297 298 298 298 298 298 298 298 298 298 298 298 299 299 299 299 299 299 299 299 299
281 281 281 282 282 282 282 282 283 283 283 283 283 284 284 284 284 284 284 284 284 284 284 284 284 284 284 285 285 285 285 285 286 286 286 286 286 287 287 288 288 289 290 290 291 291 292 292 292 292 293 293 293 293 294 294 294 295 295 296 296 297 297 298 298 298 298 299 299 299 299 299 299 299 299 299 299 300 300 300 300 300 300 299 299 299
280 281 281 281 282 282 282 282 282 283 283 283 283 283 283 283 284 284 284 284 284 284 284 284 284 284 284 284 284 284 285 285 285 285 286 286 286 287 288 288 289 289 290 291 291 292 292 292 293 293 293 293 294 294 294 295 295 296 296 297 297 298 298 298 299 299 299 299 299 299 300 300 300 300 300 300 300 300 300 300 300 300 300 299 299 299
280 280 281 281 281 281 282 282 282 282 282 282 282 283 283 283 283 283 283 283 283 283 283 283 284 284 283 284 284 284 284 285 285 285 286 286 286 287 288 289 289 290 290 291 292 292 293 293 293 293 294 294 294 295 295 296 296 296 297 297 298 298 299 299 299 300 300 300 300 300 300 300 300 300 300 300 300 300 300 300 300 300 300 300 299 299
280 280 280 281 281 281 281 281 282 282 282 282 282 282 282 282 282 282 283 283 283 283 283 283 283 283 283 284 284 284 284 285 285 285 286 286 287 287 288 289 290 290 291 291 292 292 293 293 293 294 294 295 295 295 296 296 297 297 298 298 299 299 299 300 300 300 300 300 300 300 300 300 300 300 301 301 301 301 301 301 300 300 300 300 299 299
279 280 280 280 280 281 281 281 281 281 281 281 281 282 282 282 282 282 282 282 282 283 283 283 283 283 283 283 284 284 285 285 285 286 286 286 287 288 288 289 290 290 291 292 292 292 293 293 294 294 294 295 295 296 296 297 297 298 298 299 299 299 300 300 300 300 300 300 300 300 300 300 301 301 301 301 301 301 301 301 301 300 300 300 300 300
279 279 279 280 280 280 280 280 280 280 280 281 281 281 281 281 281 281 282 282 282 282 282 282 282 283 283 283 284 284 285 285 286 286 286 287 287 288 289 289 290 290 291 291 292 292 293 293 294 294 295 295 296 296 297 297 298 298 299 299 300 300 300 300 300 300 300 300 301 301 301 301 301 301 301 302 302 302 301 301 301 301 301 301 301 301
278 278 279 279 279 279 279 279 279 280 280 280 280 280 280 281 281 281 281 281 282 282 282 282 282 283 283 284 284 285 285 286 286 286 287 287 288 288 289 289 290 290 291 291 292 292 293 293 294 294 295 295 296 296 297 298 298 299 299 300 300 300 300 300 301 301 301 301 301 301 301 301 302 302 302 302 302 302 302 302 302 301 301 301 301 301
277 277 278 278 278 278 278 278 279 279 279 279 279 280 280 280 280 281 281 281 281 281 281 282 282 283 283 284 284 285 285 286 286 287 288 288 288 289 289 290 290 290 291 291 292 292 293 293 294 295 295 296 296 297 297 298 298 299 299 300 300 300 300 301 301 301 301 301 301 302 302 302 302 303 303 303 303 303 302 302 302 302 302 302 302 302
276 276 277 277 277 277 277 278 278 278 278 278 279 279 279 280 280 280 280 281 281 281 281 282 282 283 283 284 285 285 286 286 287 288 288 289 289 289 290 290 290 291 291 292 292 293 293 294 294 295 296 296 297 297 298 298 299 299 299 300 300 300 300 301 301 301 301 302 302 302 303 303 303 303 303 303 303 303 303 302 302 302 302 302 302 302
275 276 276 276 276 276 277 277 277 277 278 278 278 279 279 279 279 280 280 280 281 281 281 282 283 283 284 284 285 286 287 287 288 288 289 289 289 290 290 291 291 291 292 292 293 293 294 294 295 296 296 297 297 297 298 298 299 299 299 300 300 300 300 301 301 301 302 302 302 303 303 303 303 304 303 303 303 303 302 302 302 302 302 302 302 302
275 275 275 275 275 275 276 276 277 277 277 278 278 278 278 279 279 279 280 280 281 281 282 282 283 284 284 285 286 286 287 288 289 289 289 290 290 290 291 291 291 292 293 293 293 294 294 295 295 296 296 297 297 297 298 298 298 299 299 300 300 300 300 301 301 302 302 302 303 303 303 303 303 303 303 303 303 302 302 302 302 302 302 302 302 302
274 274 274 274 275 275 275 276 276 277 277 277 277 278 278 278 279 279 280 280 281 281 282 283 283 284 285 286 286 287 288 288 289 289 290 290 290 291 291 291 292 292 293 294 294 294 295 295 296 296 296 297 297 297 298 298 299 299 299 300 300 300 301 301 301 302 302 302 303 303 303 303 303 303 303 303 302 302 302 302 302 302 302 302 302 302
273 273 273 274 274 274 275 275 276 276 276 277 277 277 277 278 279 279 280 280 281 282 283 283 284 285 286 286 287 287 287 288 288 289 290 290 290 291 291 292 292 293 294 294 295 295 295 296 296 296 297 297 297 298 298 298 299 299 300 300 300 301 301 301 301 302 302 302 302 303 303 303 303 302 302 302 302 302 302 302 302 302 302 302 302 302
272 272 273 273 273 274 274 274 275 275 276 276 276 277 277 278 279 279 280 281 282 282 283 284 285 285 286 286 287 287 287 288 288 289 289 290 290 291 292 293 293 294 295 295 296 296 296 296 297 297 297 297 298 298 298 299 299 300 300 301 301 301 301 301 301 302 302 302 302 302 302 302 302 302 302 302 302 302 302 302 302 302 302 302 302 302
271 272 272 272 273 273 273 274 274 274 275 276 276 277 278 278 279 280 281 282 282 283 284 284 285 285 286 286 286 287 287 288 289 289 290 291 291 292 293 293 294 295 295 296 296 296 297 297 297 297 298 298 298 298 299 299 300 300 301 301 301 301 301 301 302 302 302 302 302 302 302 302 302 302 302 302 302 302 302 302 302 302 302 302 302 302
271 271 271 272 272 272 273 273 274 274 275 275 276 277 278 279 280 281 282 282 283 284 284 284 285 285 285 286 286 287 287 288 289 290 291 292 293 293 294 295 295 295 296 296 296 297 297 297 297 298 298 298 298 299 299 300 300 301 301 302 302 302 302 302 302 302 302 302 302 302 302 302 302 302 302 302 302 302 302 302 302 302 302 302 302 303
270 270 271 271 271 272 272 273 274 274 275 276 277 278 279 280 281 281 282 283 283 284 284 284 285 285 285 286 286 287 288 289 291 292 293 293 294 294 295 295 295 296 296 296 296 297 297 297 298 298 298 299 299 299 300 300 301 301 302 302 302 302 302 302 302 302 302 302 303 302 302 302 302 302 302 302 302 302 303 303 303 302 302 302 303 303
269 270 270 271 271 272 273 274 275 275 276 277 278 279 280 281 281 282 282 282 283 283 284 284 284 285 286 286 287 288 289 291 292 293 294 294 294 295 295 295 296 296 296 297 297 297 297 298 298 298 299 299 300 300 301 301 302 302 302 303 302 302 302 302 302 303 303 303 303 303 303 303 303 303 303 303 303 303 303 303 303 302 302 303 303 304
269 269 270 271 272 273 274 275 276 277 278 279 279 280 280 281 281 282 282 282 283 283 284 284 285 286 287 288 289 290 291 292 293 294 294 295 295 295 296 296 296 297 297 297 298 298 298 298 299 299 300 300 301 301 302 302 303 303 303 303 303 303 303 303 303 304 304 304 304 304 304 304 304 304 304 304 304 303 303 303 303 303 303 303 304 304
269 270 271 272 273 274 275 276 277 278 279 279 280 280 280 281 281 281 282 282 283 283 284 285 286 288 289 290 290 291 292 293 294 294 295 295 295 296 296 297 297 297 298 298 299 299 299 300 300 300 301 302 302 303 303 303 304 304 304 304 303 304 304 304 304 305 305 305 305 305 305 305 305 305 305 304 304 304 303 303 303 303 303 304 304 305
270 271 273 274 275 276 277 277 278 279 279 279 280 280 280 280 281 281 282 283 283 285 286 287 288 289 290 291 292 293 293 294 294 295 295 296 296 297 297 298 298 298 299 299 300 300 300 301 301 302 302 303 303 304 304 304 305 305 305 305 305 305 305 305 305 305 306 306 306 306 306 306 306 305 305 305 304 304 304 304 304 304 304 305 305 305
272 273 274 275 276 277 277 278 278 278 279 279 279 279 280 280 281 282 283 284 285 287 288 289 290 291 292 293 293 294 294 295 295 296 296 297 297 298 298 299 299 300 300 300 301 301 302 302 302 303 303 304 305 305 305 306 306 306 306 306 306 306 306 306 306 306 306 306 306 306 306 306 306 306 306 305 305 305 305 305 305 305 305 306 306 306
273 274 275 276 276 277 277 277 278 278 278 278 278 279 280 281 283 284 285 286 288 289 290 291 292 292 293 294 294 295 296 296 297 297 298 298 299 299 299 300 300 301 301 301 302 302 303 303 303 304 304 305 306 306 306 307 307 307 307 307 307 307 307 307 307 307 307 307 307 307 307 307 307 307 306 306 306 306 306 306 306 306 307 307 308 307
274 275 276 276 276 276 276 276 277 277 277 278 279 280 282 283 285 286 287 288 289 290 291 292 293 293 294 294 295 296 296 297 298 298 299 299 300 300 300 301 301 302 302 302 303 303 303 304 304 305 305 306 306 307 308 308 308 308 308 308 308 308 308 308 308 308 308 308 308 308 308 308 308 307 307 307 307 307 307 307 307 307 308 309 309 308
275 275 275 275 275 275 275 276 277 278 279 280 281 282 284 285 286 288 289 290 291 291 292 293 294 294 294 295 296 296 297 298 298 299 300 300 301 301 301 302 302 302 303 303 303 304 304 304 305 305 306 307 307 308 309 309 310 310 309 309 309 309 309 309 309 309 309 309 309 309 309 309 309 308 309 309 309 309 308 308 308 309 309 310 310 310
274 274 274 274 274 275 276 277 278 279 280 282 283 285 286 287 288 289 290 291 292 292 293 294 294 294 295 296 296 297 298 298 299 300 300 301 301 302 302 303 303 303 304 304 304 304 305 305 305 306 307 308 308 309 310 311 311 310 310 310 310 310 310 310 310 310 311 311 310 310 310 310 309 310 310 310 310 310 310 310 310 310 310 311 311 311
272 273 273 274 275 276 277 279 280 281 283 284 285 286 288 289 290 291 291 292 293 293 294 294 295 295 296 296 297 297 298 299 299 300 301 301 302 302 303 303 304 304 304 305 305 305 305 306 306 307 308 309 310 311 311 312 312 311 311 311 311 311 311 311 311 312 312 312 311 311 311 311 311 311 311 311 311 311 311 311 311 311 311 311 312 311
272 273 274 275 277 278 279 281 282 284 285 286 287 288 289 290 291 292 292 293 293 294 294 295 295 296 296 297 297 298 299 299 300 300 301 301 302 303 303 304 304 305 305 305 306 306 306 307 307 308 309 310 311 311 312 312 312 312 312 311 311 311 312 312 312 313 313 312 312 312 312 312 312 312 312 312 312 312 312 312 311 311 311 312 312 311
274 275 277 278 279 281 282 283 285 286 287 288 289 290 291 291 292 292 292 293 294 294 294 295 296 296 297 297 298 299 299 300 300 301 301 302 302 303 303 304 304 305 305 306 306 307 308 308 309 309 310 311 311 312 312 313 313 312 312 312 312 312 313 313 314 314 314 313 313 313 313 313 313 313 313 313 313 313 313 312 312 311 312 312 312 311
276 278 279 281 282 283 285 286 287 288 289 290 290 291 291 292 292 292 293 293 294 294 295 296 296 297 297 298 299 299 300 300 301 301 302 302 303 303 303 304 304 305 306 306 307 308 309 309 310 310 311 311 312 313 313 313 313 313 313 313 313 313 314 314 315 315 315 314 314 314 314 314 314 313 313 313 313 313 313 313 312 312 312 312 312 311
Height
10566 10565 10564 10564 10563 10562 10560 10559 10559 10559 10556 10554 10553 10551 10550 10548 10546 10545 10544 10543 10541 10540 10538 10536 10535 10533 10531 10530 10528 10526 10524 10521 10520 10517 10515 10513 10511 10510 10508 10506 10504 10502 10500 10498 10496 10493 10491 10490 10487 10485 10483 10481 10479 10477 10475 10473 10471 10468 10466 10464 10462 10460 10458 10457 10455 10454 10452 10450 10448 10445 10443 10441 10438 10436 10434 10431 10429 10427 10425 10423 10420 10418 10416 10413 10411 10409
10558 10557 10556 10556 10556 10555 10553 10551 10551 10551 10550 10548 10545 10544 10543 10541 10540 10538 10537 10536 10535 10534 10532 10530 10528 10526 10524 10522 10521 10519 10516 10515 10512 10510 10508 10506 10505 10503 10501 10499 10497 10495 10493 10490 10488 10486 10484 10482 10480 10478 10476 10474 10471 10470 10468 10465 10463 10461 10459 10457 10455 10453 10451 10450 10449 10447 10445 10443 10441 10438 10436 10433 10431 10429 10426 10424 10422 10420 10417 10415 10413 10410 10408 10405 10403 10401
10550 10550 10548 10548 10548 10547 10546 10544 10543 10543 10543 10541 10538 10536 10535 10535 10533 10531 10530 10530 10528 10526 10525 10523 10521 10519 10517 10515 10513 10511 10510 10507 10505 10503 10501 10500 10498 10496 10494 10492 10490 10488 10485 10483 10481 10479 10477 10475 10473 10471 10468 10466 10465 10463 10460 10458 10456 10454 10452 10450 10448 10446 10445 10443 10442 10440 10438 10436 10433 10431 10429 10426 10424 10421 10419 10416 10415 10412 10410 10407 10405 10402 10400 10397 10395 10393
10543 10542 10540 10539 10539 10539 10538 10537 10536 10535 10535 10533 10531 10530 10528 10527 10526 10525 10523 10523 10521 10520 10518 10516 10514 10512 10510 10507 10505 10503 10501 10500 10498 10496 10495 10493 10491 10489 10487 10485 10483 10480 10478 10476 10474 10471 10470 10468 10465 10463 10461 10459 10457 10455 10453 10451 10449 10446 10445 10443 10441 10440 10438 10436 10435 10433 10431 10429 10426 10424 10421 10419 10417 10415 10412 10410 10407 10405 10402 10400 10397 10394 10391 10389 10386 10384
10534 10534 10533 10532 10531 10531 10530 10529 10529 10528 10527 10525 10524 10523 10521 10520 10519 10518 10516 10515 10513 10511 10510 10508 10506 10504 10502 10500 10498 10496 10494 10492 10491 10489 10488 10486 10484 10482 10480 10478 10475 10473 10471 10469 10466 10465 10463 10460 10458 10456 10454 10452 10450 10448 10446 10444 10441 10440 10438 10436 10434 10433 10431 10430 10428 10426 10424 10421 10419 10417 10415 10412 10410 10407 10405 10402 10400 10397 10394 10391 10389 10386 10383 10381 10378 10376
10525 10526 10526 10525 10524 10523 10522 10521 10521 10521 10520 10518 10516 10515 10515 10513 10512 10511 10509 10507 10505 10503 10501 10500 10498 10496 10494 10491 10490 10488 10486 10485 10483 10482 10480 10479 10477 10475 10473 10471 10468 10466 10464 10461 10460 10458 10455 10453 10451 10449 10447 10445 10443 10441 10439 10437 10435 10433 10431 10429 10428 10426 10425 10423 10421 10419 10416 10415 10412 10410 10407 10405 10403 10400 10397 10395 10392 10389 10386 10383 10381 10378 10375 10373 10370 10368
10518 10518 10518 10518 10517 10516 10515 10515 10514 10513 10512 10511 10509 10508 10507 10506 10505 10504 10501 10500 10498 10495 10493 10491 10489 10487 10486 10484 10483 10481 10479 10478 10476 10475 10473 10471 10470 10468 10466 10464 10461 10460 10457 10455 10453 10451 10448 10446 10445 10442 10440 10438 10436 10434 10432 10430 10428 10426 10424 10422 10421 10419 10418 10416 10413 10411 10410 10407 10405 10403 10400 10398 10395 10393 10390 10387 10385 10381 10378 10376 10373 10370 10367 10365 10361 10359
10511 10510 10510 10510 10510 10509 10507 10506 10506 10506 10506 10504 10502 10500 10500 10498 10497 10496 10494 10492 10490 10488 10485 10483 10480 10478 10477 10476 10475 10474 10472 10470 10468 10467 10466 10464 10463 10461 10459 10457 10455 10453 10450 10448 10446 10444 10441 10440 10438 10435 10433 10431 10429 10427 10425 10423 10421 10419 10417 10416 10414 10412 10410 10408 10406 10404 10402 10400 10398 10395 10393 10391 10388 10385 10383 10380 10377 10374 10371 10368 10365 10362 10359 10356 10353 10351
10505 10504 10503 10503 10503 10502 10501 10499 10498 10498 10499 10498 10496 10494 10492 10491 10489 10486 10485 10483 10481 10480 10478 10475 10473 10470 10469 10468 10468 10466 10465 10463 10461 10460 10458 10456 10455 10453 10451 10450 10448 10446 10443 10441 10440 10437 10435 10433 10431 10428 10426 10424 10422 10420 10418 10416 10414 10412 10410 10409 10407 10405 10403 10401 10399 10396 10395 10393 10390 10388 10386 10383 10381 10378 10375 10373 10370 10366 10363 10360 10357 10354 10351 10348 10345 10343
10498 10498 10497 10496 10495 10495 10495 10493 10491 10490 10491 10491 10490 10488 10486 10485 10481 10479 10476 10474 10472 10471 10470 10468 10466 10463 10461 10460 10460 10460 10458 10456 10455 10453 10452 10450 10448 10446 10444 10442 10440 10438 10436 10435 10432 10430 10428 10426 10424 10422 10420 10417 10415 10413 10411 10409 10407 10405 10403 10401 10400 10398 10396 10393 10391 10389 10387 10385 10383 10381 10378 10376 10374 10371 10368 10365 10362 10359 10356 10353 10350 10346 10343 10340 10338 10335
10492 10491 10491 10490 10488 10488 10488 10487 10485 10484 10484 10483 10482 10480 10479 10478 10476 10473 10469 10465 10463 10462 10462 10460 10458 10456 10454 10452 10451 10451 10451 10450 10448 10446 10445 10443 10441 10439 10437 10435 10433 10431 10429 10427 10425 10423 10421 10420 10417 10415 10413 10410 10408 10406 10404 10402 10400 10398 10396 10395 10393 10390 10388 10386 10384 10382 10380 10378 10376 10373 10371 10368 10366 10363 10361 10358 10355 10351 10348 10345 10342 10339 10336 10333 10330 10326
10485 10485 10484 10483 10481 10481 10480 10480 10479 10478 10477 10476 10475 10472 10470 10469 10469 10467 10464 10460 10456 10455 10453 10451 10450 10448 10448 10446 10445 10443 10443 10442 10441 10439 10437 10435 10434 10432 10430 10428 10426 10424 10422 10420 10418 10416 10415 10412 10410 10408 10406 10404 10401 10400 10397 10395 10393 10391 10390 10387 10385 10383 10381 10378 10376 10375 10372 10370 10368 10366 10363 10361 10358 10356 10353 10350 10347 10344 10341 10338 10335 10331 10328 10325 10322 10319
10479 10478 10478 10476 10475 10474 10474 10473 10472 10471 10470 10469 10467 10465 10462 10460 10460 10460 10457 10454 10451 10448 10446 10444 10441 10440 10440 10440 10439 10438 10436 10435 10433 10431 10430 10428 10426 10425 10424 10421 10420 10417 10415 10413 10411 10409 10407 10405 10403 10401 10399 10397 10395 10393 10391 10388 10386 10385 10382 10380 10378 10375 10373 10371 10369 10367 10365 10363 10360 10358 10355 10353 10350 10348 10345 10342 10339 10336 10333 10330 10326 10323 10320 10318 10315 10311
10472 10471 10471 10470 10468 10468 10467 10466 10465 10463 10461 10461 10460 10458 10455 10453 10452 10451 10450 10447 10444 10443 10441 10438 10435 10432 10431 10431 10432 10432 10431 10428 10426 10424 10421 10420 10419 10418 10417 10415 10413 10410 10408 10406 10404 10402 10400 10398 10396 10394 10392 10390 10388 10386 10384 10382 10380 10377 10375 10373 10370 10368 10366 10363 10361 10359 10357 10355 10352 10350 10347 10345 10342 10339 10336 10333 10331 10328 10325 10321 10319 10316 10313 10310 10306 10304
10465 10465 10465 10463 10461 10461 10460 10460 10458 10456 10454 10453 10452 10450 10448 10446 10445 10444 10443 10440 10437 10436 10435 10432 10428 10426 10425 10425 10425 10426 10425 10423 10420 10417 10414 10412 10411 10411 10410 10408 10406 10403 10401 10400 10397 10395 10394 10392 10390 10388 10385 10383 10381 10379 10377 10375 10373 10370 10368 10365 10363 10360 10358 10356 10354 10351 10350 10347 10345 10342 10340 10336 10334 10331 10328 10325 10323 10320 10316 10313 10311 10308 10305 10301 10299 10296
10459 10459 10458 10456 10455 10454 10453 10453 10451 10450 10447 10445 10445 10443 10441 10440 10438 10436 10436 10433 10431 10429 10428 10425 10422 10419 10417 10418 10419 10420 10419 10417 10414 10411 10408 10405 10403 10403 10404 10401 10399 10396 10395 10392 10390 10388 10387 10385 10383 10381 10378 10376 10375 10372 10370 10368 10365 10363 10360 10358 10355 10353 10351 10349 10346 10344 10342 10340 10337 10335 10331 10329 10326 10323 10320 10317 10314 10311 10308 10305 10302 10299 10296 10293 10291 10288
10453 10452 10451 10450 10448 10446 10446 10445 10445 10443 10441 10439 10437 10436 10435 10433 10431 10430 10428 10426 10425 10423 10421 10419 10416 10413 10410 10409 10411 10413 10414 10411 10408 10405 10402 10398 10396 10396 10397 10395 10393 10390 10387 10385 10383 10382 10380 10378 10376 10374 10371 10370 10367 10365 10363 10360 10358 10355 10353 10350 10348 10346 10344 10341 10340 10337 10335 10332 10330 10326 10324 10321 10318 10315 10312 10309 10306 10303 10300 10296 10293 10290 10288 10285 10282 10279
10446 10445 10445 10443 10441 10440 10438 10438 10437 10436 10434 10432 10431 10429 10428 10426 10425 10423 10421 10420 10418 10416 10415 10413 10410 10408 10405 10403 10402 10405 10408 10406 10403 10400 10396 10393 10390 10390 10390 10388 10386 10383 10381 10378 10377 10375 10373 10371 10369 10366 10365 10362 10360 10358 10355 10353 10350 10348 10345 10343 10341 10339 10336 10335 10332 10330 10327 10325 10321 10318 10315 10313 10310 10306 10303 10300 10296 10293 10290 10287 10284 10281 10279 10276 10273 10270
10438 10438 10438 10436 10434 10432 10431 10430 10430 10428 10427 10425 10424 10422 10420 10419 10418 10416 10415 10413 10412 10411 10408 10406 10404 10401 10400 10398 10396 10398 10400 10400 10397 10394 10391 10387 10384 10383 10383 10382 10380 10377 10375 10373 10371 10369 10367 10365 10362 10360 10358 10355 10353 10350 10347 10345 10342 10340 10338 10336 10333 10331 10329 10326 10325 10321 10319 10316 10313 10310 10307 10304 10301 10297 10294 10291 10287 10284 10281 10278 10275 10272 10269 10266 10263 10260
10431 10430 10430 10429 10428 10426 10424 10423 10422 10422 10421 10419 10417 10416 10413 10411 10410 10410 10408 10407 10406 10405 10403 10400 10398 10395 10394 10392 10391 10391 10393 10393 10391 10388 10385 10382 10378 10376 10376 10375 10373 10371 10368 10366 10365 10363 10361 10358 10355 10353 10350 10348 10345 10343 10340 10337 10335 10333 10330 10328 10326 10324 10321 10319 10316 10313 10311 10308 10305 10301 10298 10295 10291 10288 10284 10281 10277 10274 10271 10268 10265 10262 10259 10256 10254 10251
10424 10423 10421 10422 10422 10420 10417 10415 10415 10415 10414 10413 10411 10409 10406 10405 10404 10403 10401 10401 10400 10398 10396 10394 10391 10390 10388 10387 10386 10385 10386 10386 10385 10383 10380 10376 10373 10370 10370 10368 10367 10365 10362 10360 10358 10356 10355 10351 10348 10346 10343 10340 10338 10335 10332 10330 10327 10325 10322 10320 10318 10316 10313 10311 10308 10305 10302 10299 10295 10292 10288 10285 10281 10277 10274 10270 10267 10263 10260 10258 10255 10252 10250 10247 10245 10241
10418 10416 10415 10415 10415 10413 10411 10409 10408 10408 10407 10406 10405 10402 10400 10399 10398 10396 10395 10394 10393 10391 10390 10388 10386 10384 10383 10381 10380 10380 10381 10381 10380 10378 10375 10371 10368 10365 10363 10363 10361 10358 10356 10354 10352 10350 10348 10345 10341 10338 10336 10333 10330 10327 10324 10321 10319 10316 10314 10311 10310 10307 10305 10302 10299 10296 10293 10289 10286 10282 10278 10274 10270 10266 10263 10260 10257 10254 10251 10248 10245 10243 10240 10238 10235 10233
10411 10410 10408 10408 10408 10406 10405 10403 10402 10401 10401 10400 10398 10396 10395 10393 10391 10390 10388 10388 10386 10385 10383 10381 10380 10378 10377 10376 10375 10375 10375 10375 10375 10373 10370 10366 10362 10359 10358 10357 10356 10353 10350 10348 10346 10343 10340 10337 10334 10331 10328 10325 10322 10319 10316 10313 10311 10308 10305 10303 10301 10298 10296 10293 10290 10286 10283 10280 10276 10272 10268 10264 10260 10257 10254 10251 10248 10245 10242 10239 10236 10234 10231 10229 10226 10223
10406 10404 10403 10401 10401 10400 10398 10397 10396 10395 10394 10393 10391 10390 10388 10388 10386 10385 10383 10381 10380 10379 10377 10375 10373 10372 10371 10370 10370 10369 10370 10370 10370 10368 10365 10361 10358 10355 10353 10352 10350 10348 10345 10343 10340 10337 10334 10330 10326 10323 10321 10318 10315 10311 10308 10305 10303 10300 10297 10295 10293 10290 10288 10285 10281 10278 10275 10271 10267 10263 10259 10255 10251 10248 10245 10242 10239 10236 10233 10231 10228 10225 10223 10220 10217 10214
10399 10398 10396 10395 10394 10393 10392 10391 10390 10388 10387 10386 10385 10384 10383 10381 10380 10379 10377 10376 10375 10373 10371 10370 10368 10366 10365 10364 10364 10363 10363 10365 10364 10363 10360 10356 10353 10350 10348 10347 10345 10343 10340 10337 10335 10331 10328 10324 10320 10317 10314 10311 10308 10305 10301 10298 10295 10292 10290 10287 10285 10282 10280 10276 10273 10270 10266 10262 10258 10255 10251 10247 10243 10240 10237 10234 10231 10228 10225 10222 10219 10216 10213 10211 10208 10205
10393 10391 10390 10389 10388 10386 10386 10385 10383 10382 10381 10380 10379 10378 10376 10375 10374 10373 10371 10370 10369 10368 10366 10364 10362 10360 10359 10358 10358 10357 10358 10359 10358 10357 10355 10351 10348 10345 10343 10343 10341 10338 10335 10331 10329 10326 10322 10318 10314 10311 10308 10305 10301 10298 10295 10291 10288 10285 10282 10280 10277 10275 10271 10268 10265 10261 10258 10254 10250 10246 10243 10239 10235 10232 10229 10226 10223 10219 10216 10213 10210 10206 10204 10201 10198 10196
10386 10385 10384 10383 10381 10380 10380 10378 10377 10376 10375 10374 10373 10372 10371 10370 10368 10366 10365 10365 10364 10363 10361 10359 10356 10355 10354 10353 10352 10352 10352 10353 10352 10351 10349 10346 10343 10340 10338 10337 10336 10333 10330 10326 10324 10321 10317 10313 10309 10305 10302 10298 10295 10292 10288 10285 10282 10279 10276 10273 10270 10266 10263 10260 10256 10253 10250 10246 10242 10238 10235 10231 10227 10224 10221 10217 10214 10210 10207 10203 10200 10197 10195 10192 10189 10186
10380 10379 10378 10376 10376 10375 10373 10372 10371 10370 10369 10368 10367 10366 10365 10364 10362 10361 10359 10359 10358 10357 10355 10354 10352 10350 10349 10348 10346 10346 10346 10346 10346 10345 10343 10341 10338 10335 10333 10331 10330 10328 10325 10322 10319 10316 10312 10308 10304 10301 10297 10293 10290 10286 10283 10279 10276 10273 10270 10266 10263 10259 10255 10252 10248 10245 10241 10238 10234 10230 10226 10223 10220 10216 10212 10209 10205 10201 10197 10193 10190 10187 10185 10182 10180 10176
10374 10373 10372 10371 10370 10368 10367 10366 10365 10364 10363 10363 10361 10361 10360 10358 10357 10355 10354 10354 10353 10351 10350 10348 10347 10346 10344 10343 10341 10341 10341 10340 10340 10339 10337 10335 10331 10329 10328 10326 10324 10322 10320 10317 10314 10311 10307 10303 10300 10296 10292 10288 10285 10281 10277 10273 10270 10267 10263 10260 10256 10252 10248 10245 10241 10237 10233 10230 10226 10222 10218 10215 10211 10208 10204 10200 10196 10192 10188 10184 10181 10178 10175 10173 10170 10168
10368 10366 10366 10365 10364 10363 10361 10360 10360 10359 10358 10357 10356 10355 10355 10353 10352 10350 10349 10348 10348 10346 10345 10343 10342 10341 10340 10338 10336 10335 10334 10335 10335 10333 10331 10329 10325 10323 10321 10320 10317 10316 10315 10312 10309 10305 10301 10298 10294 10291 10287 10283 10280 10275 10271 10268 10265 10261 10258 10254 10250 10246 10241 10238 10234 10230 10226 10222 10218 10214 10210 10207 10203 10200 10196 10191 10187 10183 10179 10175 10171 10168 10166 10164 10162 10160
10361 10361 10360 10359 10358 10357 10356 10355 10354 10353 10353 10352 10351 10350 10349 10348 10347 10346 10345 10343 10342 10341 10340 10338 10337 10336 10335 10333 10331 10330 10328 10328 10328 10328 10326 10323 10320 10317 10315 10313 10310 10308 10308 10307 10304 10300 10296 10292 10289 10285 10281 10278 10274 10270 10266 10263 10260 10256 10253 10249 10245 10240 10236 10231 10228 10223 10219 10215 10211 10207 10203 10200 10196 10192 10188 10184 10180 10175 10170 10166 10163 10160 10157 10155 10153 10151
10355 10355 10354 10353 10353 10351 10351 10350 10349 10348 10348 10347 10346 10345 10344 10343 10342 10341 10340 10338 10337 10336 10335 10333 10332 10331 10330 10328 10326 10325 10323 10322 10321 10321 10320 10317 10313 10311 10310 10307 10304 10301 10301 10300 10299 10296 10292 10288 10284 10280 10276 10273 10268 10264 10261 10258 10255 10251 10247 10243 10239 10235 10230 10226 10222 10218 10213 10210 10205 10201 10198 10193 10190 10185 10181 10176 10172 10167 10163 10158 10154 10151 10148 10146 10145 10143
10350 10349 10348 10348 10347 10346 10346 10345 10345 10344 10343 10342 10341 10340 10339 10338 10337 10336 10335 10334 10333 10331 10330 10328 10327 10326 10325 10323 10321 10320 10318 10316 10316 10315 10313 10311 10308 10305 10303 10301 10298 10296 10294 10293 10291 10290 10287 10283 10280 10276 10272 10268 10263 10259 10255 10252 10249 10246 10242 10238 10233 10228 10224 10220 10216 10212 10208 10204 10200 10196 10192 10188 10183 10179 10174 10170 10165 10160 10155 10150 10146 10143 10140 10138 10136 10134
10345 10344 10343 10343 10343 10342 10341 10341 10340 10339 10338 10337 10336 10335 10334 10333 10332 10331 10330 10329 10328 10326 10325 10324 10322 10321 10319 10318 10316 10314 10313 10311 10311 10310 10308 10306 10303 10300 10298 10296 10293 10291 10288 10286 10284 10282 10280 10277 10274 10271 10266 10263 10258 10255 10250 10246 10243 10240 10236 10233 10228 10223 10218 10214 10210 10206 10202 10198 10195 10191 10186 10182 10178 10173 10168 10163 10158 10153 10148 10143 10139 10135 10132 10130 10127 10125
10339 10339 10338 10338 10338 10337 10336 10336 10335 10334 10333 10332 10331 10330 10330 10328 10328 10326 10325 10324 10323 10321 10320 10319 10318 10316 10314 10312 10310 10308 10306 10305 10305 10304 10303 10301 10298 10295 10293 10290 10288 10286 10283 10280 10278 10275 10272 10269 10267 10265 10261 10256 10252 10248 10245 10241 10237 10233 10230 10226 10223 10218 10213 10208 10205 10201 10197 10193 10190 10185 10181 10176 10172 10167 10162 10157 10152 10147 10142 10137 10133 10128 10125 10121 10119 10116
10335 10335 10334 10334 10333 10333 10332 10331 10330 10330 10329 10328 10327 10326 10325 10324 10323 10322 10321 10320 10318 10317 10315 10314 10313 10311 10310 10307 10305 10303 10301 10300 10298 10298 10296 10295 10293 10291 10288 10285 10282 10280 10278 10275 10272 10270 10266 10263 10260 10258 10255 10251 10246 10242 10238 10235 10232 10228 10224 10220 10216 10211 10206 10203 10199 10196 10192 10188 10184 10180 10175 10171 10166 10161 10156 10151 10146 10141 10136 10131 10126 10122 10118 10114 10111 10108
10330 10330 10330 10329 10328 10328 10327 10326 10326 10325 10325 10323 10323 10321 10321 10320 10318 10318 10316 10315 10313 10312 10310 10309 10307 10306 10304 10302 10300 10298 10296 10294 10293 10291 10291 10289 10288 10285 10282 10278 10276 10275 10272 10269 10266 10263 10261 10258 10254 10251 10248 10245 10241 10237 10233 10229 10226 10223 10218 10215 10210 10205 10200 10195 10192 10190 10186 10183 10178 10174 10170 10165 10160 10155 10151 10146 10141 10136 10131 10126 10121 10116 10112 10108 10104 10101
10326 10325 10325 10325 10324 10323 10323 10322 10321 10321 10320 10320 10318 10318 10316 10315 10315 10313 10312 10310 10309 10307 10305 10303 10302 10300 10298 10296 10295 10293 10291 10290 10288 10286 10285 10283 10281 10280 10277 10273 10270 10268 10266 10263 10260 10257 10255 10251 10248 10245 10242 10239 10236 10233 10228 10225 10221 10217 10213 10209 10205 10199 10193 10189 10186 10183 10180 10176 10172 10168 10163 10159 10155 10150 10144 10140 10135 10130 10125 10120 10115 10110 10106 10101 10098 10095
10321 10321 10321 10320 10320 10319 10319 10318 10318 10317 10316 10315 10315 10313 10312 10311 10310 10308 10307 10306 10304 10302 10300 10298 10296 10295 10293 10291 10290 10288 10286 10285 10283 10281 10280 10277 10275 10273 10271 10268 10265 10261 10259 10256 10254 10251 10248 10245 10243 10240 10237 10233 10230 10226 10223 10220 10216 10212 10208 10204 10198 10193 10188 10183 10180 10176 10173 10170 10166 10161 10156 10152 10148 10143 10138 10133 10128 10123 10118 10113 10109 10104 10100 10096 10092 10088
10317 10317 10316 10316 10316 10315 10315 10314 10313 10313 10312 10311 10310 10309 10308 10306 10305 10304 10302 10301 10299 10297 10295 10293 10291 10289 10287 10286 10285 10283 10281 10280 10278 10276 10274 10271 10270 10267 10265 10262 10259 10256 10253 10250 10247 10245 10241 10238 10235 10233 10231 10228 10225 10221 10217 10214 10210 10206 10203 10198 10193 10187 10182 10177 10173 10169 10166 10163 10159 10155 10150 10145 10141 10136 10131 10126 10121 10116 10112 10107 10102 10098 10094 10091 10086 10083
10313 10313 10313 10312 10312 10311 10311 10310 10310 10309 10308 10307 10306 10305 10303 10301 10300 10298 10297 10295 10294 10292 10290 10288 10286 10284 10282 10280 10279 10278 10276 10274 10273 10270 10268 10266 10263 10261 10258 10256 10253 10250 10247 10243 10240 10237 10235 10231 10228 10225 10223 10221 10219 10215 10212 10208 10205 10201 10196 10191 10186 10181 10176 10171 10167 10163 10159 10155 10151 10148 10144 10140 10135 10130 10125 10120 10115 10110 10105 10101 10096 10091 10088 10085 10082 10078
10310 10310 10309 10309 10308 10308 10307 10306 10306 10305 10304 10303 10301 10300 10298 10296 10295 10293 10291 10290 10288 10287 10285 10283 10281 10279 10276 10275 10273 10271 10270 10268 10266 10265 10263 10260 10258 10255 10252 10250 10246 10244 10241 10237 10233 10230 10227 10225 10221 10218 10216 10214 10212 10209 10205 10202 10198 10194 10190 10185 10180 10175 10170 10166 10162 10158 10153 10148 10144 10141 10137 10133 10128 10124 10118 10113 10108 10103 10098 10094 10090 10086 10082 10079 10076 10072
10306 10306 10305 10305 10305 10304 10303 10303 10301 10300 10299 10298 10296 10295 10293 10291 10290 10288 10287 10285 10283 10282 10280 10278 10276 10274 10271 10269 10266 10265 10264 10262 10261 10259 10256 10254 10251 10249 10246 10243 10240 10238 10235 10231 10227 10223 10220 10217 10215 10212 10209 10207 10205 10203 10200 10196 10192 10187 10182 10178 10173 10169 10164 10159 10155 10151 10147 10143 10138 10134 10130 10126 10122 10117 10112 10106 10101 10096 10091 10086 10083 10080 10076 10073 10070 10065
10303 10302 10302 10301 10301 10300 10300 10298 10297 10296 10295 10293 10291 10290 10288 10287 10286 10284 10282 10280 10279 10277 10275 10273 10271 10269 10266 10264 10261 10259 10257 10255 10254 10252 10250 10248 10245 10243 10240 10237 10234 10231 10228 10225 10221 10217 10213 10210 10207 10205 10203 10201 10199 10196 10193 10190 10186 10181 10176 10171 10167 10163 10158 10153 10149 10145 10141 10136 10132 10128 10123 10120 10115 10110 10105 10100 10095 10089 10084 10080 10076 10073 10070 10068 10063 10059
10299 10298 10298 10297 10296 10296 10295 10293 10293 10291 10290 10288 10287 10285 10284 10283 10281 10280 10278 10276 10274 10272 10270 10269 10266 10265 10261 10259 10257 10255 10251 10249 10247 10245 10243 10241 10239 10237 10234 10231 10228 10225 10221 10219 10216 10212 10208 10204 10201 10198 10196 10195 10193 10190 10187 10183 10180 10175 10170 10165 10160 10155 10151 10147 10143 10140 10135 10130 10125 10121 10116 10112 10108 10103 10098 10093 10088 10083 10078 10073 10069 10066 10063 10061 10058 10053
10295 10295 10294 10293 10292 10291 10290 10289 10288 10286 10285 10284 10283 10281 10280 10278 10277 10275 10273 10271 10270 10268 10266 10264 10262 10260 10256 10254 10252 10250 10246 10244 10241 10240 10237 10235 10233 10230 10228 10225 10222 10219 10216 10212 10209 10206 10203 10199 10196 10193 10191 10189 10186 10184 10181 10178 10173 10168 10163 10159 10154 10149 10144 10140 10136 10132 10128 10123 10118 10114 10110 10105 10101 10097 10092 10088 10082 10077 10071 10067 10063 10060 10057 10055 10051 10047
10291 10290 10290 10289 10288 10287 10286 10285 10283 10283 10281 10280 10278 10277 10276 10275 10273 10271 10269 10268 10265 10263 10261 10259 10257 10255 10252 10250 10248 10245 10243 10240 10236 10234 10232 10229 10226 10224 10221 10218 10216 10213 10210 10206 10203 10199 10196 10193 10190 10188 10186 10183 10181 10178 10175 10172 10168 10163 10157 10152 10148 10143 10138 10133 10129 10125 10121 10116 10111 10106 10102 10098 10094 10090 10086 10082 10078 10072 10066 10061 10057 10054 10051 10050 10046 10042
10287 10286 10285 10285 10284 10283 10281 10281 10280 10278 10277 10276 10275 10273 10271 10270 10268 10266 10265 10263 10261 10259 10256 10254 10252 10250 10247 10245 10243 10241 10239 10236 10233 10230 10228 10225 10221 10219 10216 10213 10210 10207 10204 10201 10197 10193 10190 10186 10183 10181 10180 10178 10175 10173 10170 10166 10161 10156 10151 10146 10141 10137 10132 10128 10123 10118 10114 10109 10105 10100 10095 10091 10087 10083 10080 10076 10072 10068 10063 10057 10052 10048 10046 10045 10041 10038
10283 10282 10281 10281 10280 10279 10278 10276 10275 10274 10273 10271 10270 10269 10267 10266 10265 10263 10260 10258 10256 10254 10252 10250 10247 10245 10242 10240 10238 10236 10234 10231 10229 10226 10223 10221 10218 10215 10211 10208 10205 10202 10198 10195 10191 10188 10184 10180 10176 10174 10173 10171 10169 10166 10164 10161 10156 10151 10145 10140 10135 10131 10126 10122 10118 10113 10108 10103 10098 10093 10089 10085 10081 10078 10075 10070 10067 10063 10059 10053 10048 10044 10041 10040 10037 10034
10279 10278 10278 10276 10276 10275 10274 10273 10271 10270 10269 10267 10266 10264 10263 10261 10260 10258 10256 10254 10251 10250 10247 10245 10243 10240 10237 10235 10233 10231 10229 10226 10224 10221 10219 10216 10214 10211 10207 10204 10201 10198 10194 10190 10186 10183 10178 10173 10168 10165 10165 10164 10163 10161 10158 10155 10151 10146 10140 10135 10130 10125 10121 10117 10112 10108 10103 10097 10092 10087 10083 10079 10075 10072 10068 10065 10062 10059 10055 10050 10045 10040 10038 10036 10033 10030
10275 10275 10274 10273 10272 10271 10270 10269 10268 10266 10265 10263 10261 10260 10258 10256 10255 10253 10251 10249 10247 10245 10243 10240 10238 10236 10233 10230 10228 10226 10224 10221 10219 10216 10214 10211 10209 10206 10203 10200 10197 10194 10190 10186 10182 10178 10174 10169 10163 10158 10155 10155 10155 10154 10151 10148 10145 10140 10135 10130 10125 10120 10115 10111 10107 10102 10097 10091 10086 10081 10077 10073 10069 10066 10063 10060 10057 10054 10051 10046 10041 10037 10034 10032 10030 10026